Theta_e
309 311 312 313 315 316 317 318 319 320 321 321 320 319 318 317 317 318 320 320 320 319 318 317 315 314 313 311 310 310 311 312 313 313 314 315 315 315 315 315 314 314 314 314 314 313 313 313 313 313 313 313 313 313 312 312 311 310 309 308 308 307 308 308 308 308 308 307 307 306 306 305 305 305 304 303 302 301 300 299 299 299 298 298 298 298
307 309 310 312 313 314 314 316 317 319 321 321 321 320 319 318 317 318 319 319 318 316 313 312 310 309 309 308 307 306 306 308 309 309 310 311 312 313 313 313 314 314 314 314 314 314 314 314 313 313 313 312 312 311 310 309 309 308 307 307 306 306 306 306 306 306 306 305 305 304 303 303 302 302 301 300 300 299 298 298 298 298 298 298 298 298
306 307 308 310 312 313 313 314 316 317 320 321 321 321 319 318 317 317 317 317 315 312 309 309 308 307 307 306 306 305 305 306 306 307 307 308 308 309 310 311 311 312 313 313 313 313 313 313 312 312 311 311 310 309 308 307 307 306 305 305 305 305 305 305 304 304 303 303 302 301 301 300 300 300 299 299 299 299 299 299 299 298 298 298 298 298
306 306 307 308 310 312 313 314 315 316 317 320 321 321 318 317 316 315 315 314 312 310 308 308 308 307 306 306 306 306 306 306 306 306 306 306 307 307 308 309 310 310 311 311 312 312 311 311 310 310 309 308 308 307 306 306 305 305 304 304 304 304 303 303 303 302 302 301 300 300 299 299 299 299 299 299 299 299 299 299 299 299 298 298 298 298
306 306 307 308 310 311 313 314 315 315 317 318 319 319 317 316 314 313 313 312 310 308 308 308 308 307 306 306 306 306 306 306 306 306 306 306 306 306 307 308 309 309 310 310 310 310 309 309 308 308 307 307 306 305 305 304 304 304 303 303 303 303 303 302 302 301 301 300 300 299 299 299 299 299 299 299 299 299 299 299 299 299 298 298 298 298
305 305 306 308 309 310 312 313 313 314 315 315 316 315 315 313 312 312 312 310 309 308 308 308 308 307 306 306 306 307 307 307 306 305 305 305 306 306 307 308 308 309 309 309 308 308 308 307 306 306 305 305 304 304 304 303 303 303 303 302 302 302 302 301 301 301 300 300 300 300 300 300 300 300 299 299 299 300 300 299 299 299 298 298 298 298
305 305 306 308 309 310 312 312 313 313 313 312 311 311 310 310 310 311 311 310 309 308 308 308 308 308 308 307 307 308 308 307 306 305 304 305 305 306 307 307 308 308 308 307 307 306 306 306 305 305 304 304 303 303 303 302 302 302 302 302 302 301 301 301 300 300 300 300 300 300 300 300 300 300 300 300 300 300 300 300 299 299 299 299 298 298
305 305 306 307 308 309 310 312 313 313 313 311 310 308 308 308 309 310 310 310 309 309 309 309 309 309 309 309 309 309 308 307 306 305 305 305 306 306 307 307 307 306 306 306 305 305 304 304 304 303 303 303 303 302 302 302 302 302 301 301 301 301 301 301 300 300 300 300 300 300 300 300 300 300 300 300 300 300 300 300 299 299 299 299 299 299
306 305 305 306 307 308 309 310 312 313 313 312 310 308 307 307 308 309 310 310 309 309 309 310 310 310 310 311 311 310 308 307 306 306 306 306 306 306 306 306 305 305 304 304 304 303 303 303 303 302 302 302 302 302 302 302 302 301 301 301 301 301 301 301 301 301 301 301 301 301 301 300 300 301 300 301 301 301 300 300 299 299 299 299 299 299
306 306 305 305 306 308 309 309 311 312 313 312 310 309 307 307 307 308 309 309 309 309 310 310 310 310 311 311 311 311 309 308 306 306 306 306 306 305 305 305 304 304 303 303 303 302 302 302 302 302 302 302 302 302 302 302 301 301 301 301 301 301 301 301 301 301 301 301 301 301 301 301 301 301 301 301 301 301 300 300 300 299 299 299 299 299
306 305 305 305 305 306 308 308 309 311 312 311 310 309 308 307 307 308 309 309 308 309 309 310 310 311 311 311 311 311 310 309 307 306 306 305 305 305 304 304 303 303 303 302 302 302 302 302 302 302 302 302 302 302 302 302 301 301 301 301 301 302 302 302 302 302 302 302 302 302 302 301 302 301 301 301 301 301 300 300 300 299 300 300 300 300
306 305 305 305 305 305 306 307 308 309 310 310 309 309 308 307 307 308 309 309 309 308 308 309 309 310 311 311 311 311 310 309 308 307 307 306 306 305 305 305 304 304 304 304 303 303 303 303 303 303 302 302 302 302 302 302 302 302 302 302 302 302 302 303 303 303 303 303 303 302 302 302 302 302 301 301 301 300 300 300 300 300 300 300 300 300
305 305 305 305 305 305 306 306 307 308 309 309 310 309 308 307 307 308 309 309 309 308 307 307 308 309 310 311 312 311 310 310 309 308 308 307 307 307 306 306 306 306 306 306 306 305 304 304 304 303 303 303 303 302 302 302 302 302 302 302 303 303 303 303 304 304 304 303 303 303 302 302 302 302 302 301 301 300 300 300 300 300 300 300 300 300
305 305 305 306 306 306 306 306 307 307 308 309 309 309 308 307 307 307 309 309 307 306 306 306 307 307 309 311 312 312 311 310 309 308 308 308 307 307 307 307 307 307 307 307 307 306 306 305 305 305 304 304 303 303 302 302 302 302 303 303 303 304 304 305 305 304 304 303 303 302 302 302 302 302 302 301 301 300 300 300 300 300 300 300 300 300
305 306 306 306 306 305 306 306 307 307 307 308 308 308 307 306 306 307 308 307 306 305 305 305 305 305 307 309 311 312 312 310 309 308 307 307 307 307 307 307 307 307 307 307 307 306 306 306 306 306 305 305 304 303 303 302 302 303 303 304 304 305 305 305 305 304 304 303 302 302 301 301 301 302 302 301 300 300 300 300 300 300 300 300 299 299
305 306 307 306 305 304 305 305 306 306 306 307 307 308 307 306 306 306 307 307 306 305 305 305 305 305 306 307 309 311 311 310 309 307 306 306 307 308 308 307 307 307 307 307 307 306 306 306 306 306 306 305 305 304 304 303 303 303 304 304 305 305 306 305 305 304 303 303 302 302 302 302 301 301 301 300 300 300 300 300 300 300 299 299 299 298
305 306 307 306 304 302 302 303 304 304 305 306 307 307 307 306 306 306 307 307 306 306 306 306 306 305 305 306 307 309 310 310 309 307 306 305 306 307 308 308 307 308 308 308 307 307 307 306 306 306 307 306 306 305 305 305 305 305 304 305 305 305 305 305 304 303 303 302 302 302 302 302 301 301 300 300 300 299 299 299 299 299 299 298 298 297
303 304 305 304 302 300 299 300 301 302 303 304 305 306 307 307 307 306 306 306 306 307 307 307 307 306 306 305 305 307 308 309 308 307 305 304 304 305 306 307 307 307 308 308 308 308 308 307 307 307 307 307 307 307 307 306 306 305 305 305 305 305 304 304 303 303 303 302 302 302 302 302 301 300 300 299 299 299 299 299 298 298 297 297 297 296
299 299 300 300 299 298 298 298 299 299 301 302 303 304 305 306 306 307 306 306 307 307 307 307 308 308 307 305 305 306 307 308 307 306 304 302 302 303 304 305 305 306 306 307 308 308 308 308 308 308 308 308 308 308 307 306 305 304 304 304 304 304 303 303 303 303 302 302 302 302 302 301 300 300 299 299 298 298 297 297 297 296 296 296 295 295
294 294 295 296 297 296 296 296 297 298 299 300 302 303 304 305 305 306 306 306 307 307 307 308 308 307 306 305 305 306 307 307 306 305 302 300 300 301 302 303 303 304 304 305 305 306 307 307 307 307 307 307 307 306 305 304 304 303 303 303 303 303 303 302 302 302 302 302 302 301 301 300 299 298 298 297 297 296 296 296 295 295 295 295 295 295
292 292 292 293 294 295 294 294 295 296 297 299 301 302 303 304 305 306 306 306 306 307 307 307 305 304 304 303 304 305 306 306 305 303 300 298 298 299 300 301 302 302 302 303 304 304 305 305 305 305 305 305 304 304 303 303 303 302 302 302 302 302 302 302 301 301 301 300 300 299 299 298 297 297 296 296 295 295 295 295 294 295 295 295 295 295
291 291 291 292 293 293 293 293 294 295 297 299 300 301 303 304 305 305 306 306 306 306 305 303 301 301 301 301 302 303 305 305 305 303 300 298 296 297 299 300 301 301 301 302 302 303 303 304 304 303 303 303 303 303 302 302 302 302 302 302 301 301 301 300 300 300 299 299 298 297 297 296 296 295 295 294 294 294 294 294 294 294 294 294 294 294
290 291 291 291 292 292 292 293 294 295 296 298 299 300 302 303 304 305 306 306 306 304 302 300 299 299 300 300 300 302 303 304 304 303 301 298 296 296 298 299 300 299 299 300 301 302 302 302 302 302 302 302 302 301 301 301 301 301 301 300 300 299 299 299 298 298 297 297 296 296 296 295 295 294 294 294 294 294 294 293 294 294 294 294 294 293
290 290 291 291 291 291 292 292 293 294 296 297 298 299 301 302 303 304 305 305 304 302 300 299 298 298 297 298 299 300 301 302 303 303 300 297 295 295 297 298 298 297 298 298 299 299 300 300 300 300 300 300 300 300 300 300 300 300 299 299 298 298 298 297 297 297 296 296 295 295 294 294 294 293 293 293 293 293 293 293 293 293 293 293 293 293
289 289 290 290 290 291 291 291 292 293 294 295 297 298 299 301 302 303 303 303 302 301 299 298 297 296 296 296 297 298 299 301 302 302 300 296 295 295 296 297 296 295 295 296 297 297 298 299 299 299 299 299 299 299 298 298 298 298 297 297 297 297 296 296 296 295 295 295 294 294 293 293 293 293 292 292 292 292 292 292 292 292 292 293 292 293
287 288 288 288 289 290 290 290 291 291 292 294 295 297 298 299 301 301 302 301 300 299 299 298 296 295 294 295 295 295 297 299 300 300 299 297 296 296 296 296 294 293 292 293 294 295 296 296 296 297 297 297 297 297 297 297 296 296 296 295 295 295 295 295 294 294 294 293 293 293 292 292 292 292 292 291 291 291 291 291 292 292 292 292 292 293
286 287 287 287 288 288 289 289 290 290 291 292 294 295 297 298 299 299 298 298 298 299 299 297 296 294 294 293 293 293 295 296 297 298 299 298 297 295 294 294 293 293 292 292 293 294 294 294 294 294 295 295 295 295 295 295 294 294 294 294 294 293 293 293 293 293 292 292 292 292 292 291 291 291 291 291 291 291 291 291 291 291 292 292 292 292
285 285 286 286 287 287 288 288 288 289 290 291 292 294 296 297 297 295 294 295 297 299 299 298 296 295 294 292 292 292 294 295 295 296 297 297 296 294 293 293 293 293 292 292 292 293 293 292 292 292 293 293 293 293 294 293 293 293 293 292 292 292 292 292 291 291 291 291 291 291 291 291 290 290 290 290 290 290 290 290 290 291 291 291 291 291
284 284 285 285 286 287 287 287 287 288 289 290 291 292 293 294 293 291 291 293 296 297 298 297 297 296 294 292 291 292 292 293 293 294 296 296 295 293 292 292 293 293 293 292 291 291 291 290 290 291 292 292 292 292 292 292 292 292 291 291 291 290 290 290 290 290 290 290 290 290 290 290 290 290 290 290 290 289 289 289 290 290 290 290 290 290
283 283 284 284 285 286 286 287 287 287 288 289 289 290 290 291 290 290 291 292 294 295 295 296 296 295 293 292 291 291 290 290 291 293 294 294 294 292 292 292 293 293 293 292 291 290 289 288 289 290 290 291 291 291 291 291 291 290 290 289 289 289 289 289 289 289 289 289 289 289 289 289 289 289 289 289 289 288 288 288 288 289 289 289 288 288
281 281 282 282 283 284 285 285 286 286 287 288 288 289 289 289 289 290 291 291 292 293 293 293 293 293 293 293 292 290 288 288 289 291 292 293 293 292 292 292 292 293 293 294 293 291 289 287 288 288 289 289 290 290 290 289 289 289 289 288 288 288 288 288 288 288 288 288 288 288 288 288 288 288 288 288 288 288 287 287 287 287 288 287 287 287
280 280 280 280 281 282 283 284 284 285 286 286 287 287 288 288 288 289 290 290 290 290 291 290 291 291 292 291 290 288 287 287 288 290 291 291 291 292 292 292 292 292 293 293 294 294 292 289 287 287 288 289 289 289 289 289 288 288 288 288 288 288 288 288 288 287 287 287 287 287 287 287 287 287 287 287 287 287 286 286 286 286 287 287 286 286
279 279 279 279 280 281 281 282 282 283 283 284 285 285 286 287 287 288 288 288 289 289 289 288 288 288 287 287 286 285 284 285 287 288 289 290 290 290 291 291 291 291 292 292 293 293 291 289 287 286 287 287 288 288 288 288 288 288 288 288 289 288 288 288 288 288 287 287 287 287 286 286 286 286 286 286 286 286 286 285 285 285 286 286 286 286
278 278 278 279 279 279 279 280 280 281 281 282 283 284 285 285 286 286 287 287 288 288 288 287 286 286 285 285 284 283 283 285 286 288 289 290 290 290 289 290 290 290 291 291 291 290 289 288 287 286 286 286 286 286 286 287 287 287 287 287 287 287 287 287 287 287 287 286 286 286 286 286 285 285 285 286 285 285 285 285 285 285 285 286 286 286
277 277 278 278 278 278 278 279 279 279 280 280 281 282 283 284 285 285 286 286 287 287 287 287 286 285 285 284 284 283 283 284 286 287 289 289 289 289 289 289 289 290 290 290 289 288 287 287 287 287 286 285 285 285 285 285 285 285 286 286 286 286 285 285 285 285 285 286 286 286 285 285 285 285 285 285 285 285 284 284 284 284 284 285 286 286
277 277 277 277 277 277 278 278 278 278 278 279 279 280 281 282 283 284 284 285 285 285 285 285 285 285 284 284 283 282 283 284 286 287 288 289 289 289 288 288 288 289 289 288 288 287 287 287 287 287 286 286 285 284 284 284 284 284 284 284 284 284 285 285 285 285 285 285 285 285 285 285 285 285 285 285 285 284 284 283 283 283 284 284 285 285
276 276 276 276 276 277 277 277 277 278 278 278 278 279 280 281 281 282 283 283 283 284 284 284 284 284 284 283 283 282 283 284 285 286 288 288 289 289 288 288 288 289 288 287 287 286 286 286 287 287 286 286 285 284 284 284 284 284 284 284 284 284 284 284 284 285 285 285 285 285 285 285 285 284 284 284 284 283 283 283 283 283 283 284 284 284
276 276 276 276 276 276 276 277 277 277 277 277 278 278 279 279 280 280 281 282 282 282 282 282 282 282 282 282 282 282 283 284 284 286 287 287 288 289 288 287 288 288 288 288 287 286 286 286 287 286 286 285 285 285 284 284 284 283 283 284 284 284 284 284 284 285 285 285 284 284 284 284 284 284 284 283 283 283 283 283 283 283 283 283 283 283
275 276 276 276 276 276 276 276 276 277 277 277 277 277 278 278 279 279 279 280 280 281 281 281 281 281 281 281 281 282 282 283 283 284 285 286 287 287 287 287 286 286 287 287 287 287 286 286 286 286 285 285 284 284 283 283 283 283 283 284 284 284 284 284 284 284 284 284 284 284 284 284 283 283 283 283 283 282 282 282 283 283 283 283 283 283
275 275 275 275 275 275 276 276 276 276 277 277 277 277 277 278 278 278 278 279 279 279 279 280 280 280 280 280 280 280 281 281 282 282 283 284 285 285 286 285 285 285 285 285 286 286 286 286 286 286 285 285 284 284 283 283 283 283 283 284 284 284 284 284 284 284 284 284 284 283 283 283 283 282 282 282 282 282 282 282 282 282 282 283 283 283
275 274 275 275 275 275 275 276 276 276 277 277 277 277 277 278 278 278 278 278 278 278 278 278 279 279 279 279 279 279 279 280 280 280 281 282 282 283 283 283 283 283 283 283 284 284 284 285 285 285 284 284 284 284 284 283 283 284 283 284 283 283 283 283 283 283 283 283 283 282 282 282 282 282 282 282 282 282 282 282 282 282 282 282 282 282
274 274 274 274 274 275 275 275 276 276 276 277 277 277 277 277 277 278 278 278 278 278 278 278 278 278 278 278 278 278 278 279 279 279 280 280 281 281 282 282 282 282 282 282 282 283 283 283 283 283 284 284 284 284 283 283 283 283 283 283 283 283 283 282 282 282 282 282 282 282 282 282 282 282 282 282 282 282 282 282 282 282 282 282 282 282
274 274 274 274 274 274 274 275 275 275 275 276 276 276 276 277 277 277 278 278 278 278 278 278 278 278 277 277 277 277 278 278 278 278 279 279 280 280 280 281 281 281 282 282 282 282 282 282 282 282 282 282 283 283 282 282 282 282 282 282 282 282 283 282 282 281 281 281 281 281 281 281 281 281 281 282 282 282 282 282 282 282 281 281 281 281
273 273 273 273 274 274 274 274 274 274 274 275 275 275 276 276 277 277 277 277 277 278 278 278 278 278 277 277 277 277 277 277 277 278 278 278 278 279 279 280 280 280 281 281 281 281 281 281 281 281 281 281 282 282 282 281 281 281 281 281 281 282 282 282 281 281 281 281 281 281 281 281 281 281 281 281 281 281 281 281 281 281 281 281 281 281
273 273 273 273 273 273 273 273 273 274 274 274 274 275 275 276 276 276 277 277 277 277 277 278 278 277 277 276 276 277 277 277 277 277 277 277 278 278 278 279 279 279 280 280 280 280 280 280 280 280 281 281 281 281 281 281 281 281 281 281 280 280 281 281 281 281 281 280 280 280 280 280 281 281 280 280 280 280 280 281 281 281 280 281 280 281
273 273 273 273 273 273 273 273 273 273 273 274 274 274 275 275 275 276 276 276 276 277 277 277 277 277 276 276 276 276 276 276 277 277 277 277 277 277 277 278 278 278 279 279 279 279 280 280 280 280 280 280 280 280 280 280 280 280 280 280 280 280 280 280 280 280 280 280 280 279 279 280 280 280 280 279 279 279 280 280 280 280 280 280 280 280
273 273 273 273 273 273 273 273 273 273 273 273 273 274 274 274 275 275 275 276 276 276 276 276 276 276 276 276 276 276 276 276 276 276 276 276 276 276 277 277 277 277 278 278 278 279 279 279 279 279 279 279 280 280 279 279 279 280 280 280 280 280 280 280 279 279 279 279 279 279 279 279 279 279 279 279 279 279 279 279 279 279 279 279 279 279
272 272 272 273 273 273 273 273 273 273 273 273 273 273 273 274 274 274 274 275 275 275 275 275 275 275 275 275 275 276 276 275 275 275 275 275 276 276 276 276 276 277 277 277 277 278 278 278 278 278 278 279 280 280 279 279 279 279 279 280 280 280 280 279 279 279 279 279 278 278 278 278 278 278 278 278 278 278 278 278 278 279 279 279 279 279
272 272 272 272 272 272 272 272 272 272 272 273 273 273 273 273 273 274 274 274 274 274 274 275 275 275 275 275 275 275 275 275 275 275 275 275 275 275 275 275 276 276 276 276 277 277 277 277 277 278 278 278 279 279 279 279 279 279 279 279 279 280 279 279 278 278 278 278 278 278 278 278 277 277 277 277 278 278 278 278 278 278 278 278 278 278
271 271 271 271 271 272 272 272 272 272 272 272 272 273 273 273 273 273 273 273 274 274 274 274 274 275 275 275 275 275 274 274 274 274 274 275 275 275 275 275 275 276 276 276 276 276 277 277 277 278 278 278 279 279 279 279 279 279 278 278 278 278 278 278 278 278 278 278 278 278 278 277 277 277 277 277 277 278 278 278 278 278 278 278 278 278
270 271 271 271 271 271 271 271 272 272 272 272 272 272 272 273 273 273 273 273 273 273 273 274 274 274 274 274 274 274 274 274 274 274 274 274 274 275 275 275 275 276 276 276 277 277 277 278 279 279 279 279 279 278 279 279 279 279 278 278 277 277 277 277 277 277 277 277 277 277 277 277 277 277 277 277 277 277 278 278 278 278 278 278 278 278
Wind_Speed
18 20 20 20 21 22 22 24 25 25 26 26 27 27 27 26 25 23 22 22 22 22 21 20 19 18 17 16 16 16 17 17 18 19 20 21 22 23 24 25 25 25 25 25 25 25 25 25 25 25 24 24 23 23 22 21 21 20 20 20 20 20 19 19 18 17 17 16 16 16 15 15 14 13 12 11 10 9 9 8 8 8 8 7 7 7
16 18 20 20 20 20 21 23 24 25 26 27 28 28 28 26 25 24 23 23 22 21 20 19 18 17 16 15 14 14 15 16 17 17 18 19 19 20 21 21 22 23 23 23 23 23 23 23 24 24 24 24 23 23 22 21 21 21 21 21 21 20 19 19 18 17 16 16 16 15 15 15 14 13 12 11 10 10 10 9 9 9 8 8 8 7
13 15 18 20 21 20 19 22 23 23 25 27 28 28 27 26 25 25 24 24 23 21 20 18 17 16 16 15 14 14 14 15 16 17 17 18 18 19 19 20 20 21 21 22 22 22 22 22 22 23 23 23 22 22 21 21 21 21 21 21 20 19 18 18 17 16 15 15 15 15 15 14 14 13 12 11 11 10 10 9 9 8 8 7 7 7
12 12 15 19 21 21 21 22 22 22 23 26 27 28 27 26 25 25 25 24 23 22 20 18 17 17 16 16 15 14 14 15 15 16 16 17 18 18 19 19 20 20 21 21 21 22 22 22 22 22 22 22 21 21 20 20 20 20 19 19 18 18 17 16 15 15 14 14 14 14 14 14 13 12 11 11 10 10 9 8 8 7 7 6 6 6
11 12 15 18 19 21 22 22 22 22 23 24 26 27 27 26 25 25 25 25 24 23 21 19 18 17 17 17 16 15 15 15 15 16 16 17 17 18 19 19 20 20 21 21 22 22 22 22 22 21 21 21 20 20 19 19 18 18 18 17 17 16 16 15 15 15 14 14 14 14 14 13 12 11 10 10 9 8 8 7 7 6 6 6 5 5
11 14 17 18 18 20 23 23 22 21 22 21 22 24 24 24 25 25 25 25 24 24 22 21 20 19 18 18 17 17 16 15 15 15 16 16 17 18 19 19 20 20 21 21 21 21 21 21 21 21 20 20 19 19 18 18 17 17 17 16 16 16 15 15 15 15 15 15 15 14 13 12 11 11 10 9 8 7 7 6 6 5 5 5 5 5
11 15 17 17 19 22 24 23 22 21 20 18 18 19 20 21 22 22 22 24 24 24 23 22 21 20 19 19 18 18 16 16 15 15 16 17 18 18 19 20 20 20 21 21 21 21 21 20 20 20 19 19 19 18 18 18 17 17 17 17 16 17 17 17 16 16 16 15 15 14 13 12 11 10 9 8 7 7 6 5 5 5 5 5 5 5
10 12 14 15 16 20 23 23 21 20 19 18 17 16 16 17 18 19 19 20 21 21 22 23 22 21 20 19 19 18 17 17 16 16 17 18 19 19 20 20 21 21 21 21 21 21 20 20 20 20 19 19 19 19 18 18 18 18 18 18 18 18 18 18 18 17 16 15 14 13 12 11 10 9 8 8 7 6 5 5 5 5 5 5 5 5
11 10 11 12 14 16 18 20 20 21 21 19 18 17 16 16 16 16 16 16 17 19 21 22 22 21 20 19 18 17 18 18 18 19 19 20 20 21 21 21 21 21 21 21 21 21 20 20 20 20 20 20 20 19 19 19 19 20 20 20 20 19 19 19 18 17 16 15 13 12 11 10 9 8 7 7 6 5 5 5 4 4 4 4 5 5
12 10 9 10 13 16 16 17 19 22 23 22 20 19 19 18 17 16 15 14 15 18 20 20 19 18 17 18 17 16 16 17 19 20 21 22 22 23 23 23 23 23 22 22 22 21 21 21 21 20 20 20 20 20 20 20 21 21 21 20 20 20 19 18 17 16 15 13 12 11 10 9 8 7 7 6 5 5 4 4 4 4 4 4 4 4
11 11 9 8 10 13 15 17 20 23 23 22 20 19 19 20 19 18 16 14 14 16 17 17 16 16 16 16 17 17 16 16 17 19 20 22 23 23 23 23 23 24 24 23 23 23 22 22 21 21 21 21 21 21 21 21 21 21 21 20 20 19 18 17 16 15 14 12 11 10 9 8 7 7 6 6 5 4 4 3 3 3 3 3 3 3
10 10 10 9 8 9 11 14 18 21 21 20 18 17 17 19 20 20 18 16 15 15 15 16 16 17 17 17 18 17 17 16 16 17 17 18 20 21 22 22 23 23 22 22 23 23 23 23 22 22 22 22 22 22 21 21 21 21 20 20 19 18 17 16 15 14 13 12 11 10 9 8 7 7 6 5 5 4 4 3 3 2 2 2 2 3
9 11 11 11 10 9 10 11 13 14 16 15 15 15 16 18 19 19 18 17 17 17 17 17 17 17 18 19 20 19 19 18 17 17 17 18 18 18 19 20 20 20 20 20 20 20 22 22 22 22 22 22 22 22 21 21 21 20 20 19 18 17 17 16 15 14 13 12 11 10 9 8 8 7 6 6 5 4 4 4 3 3 3 3 3 3
7 9 10 10 10 11 12 12 11 10 11 13 15 16 18 19 19 17 16 16 16 18 19 18 17 16 16 19 21 21 21 20 19 19 19 19 19 19 19 19 20 20 20 19 20 21 21 21 21 21 21 21 21 21 21 21 20 20 19 18 18 17 16 16 15 14 13 12 11 10 10 9 8 7 6 6 6 5 5 5 5 5 5 4 4 3
8 8 7 7 8 10 12 13 13 12 12 14 16 17 18 19 18 17 15 14 16 17 18 18 16 14 14 16 19 22 23 23 21 19 18 19 20 20 21 20 21 21 21 21 21 22 22 22 21 20 20 20 20 21 21 20 20 19 19 18 18 17 17 16 15 15 14 13 12 11 11 10 9 8 7 7 7 7 7 6 6 6 6 6 5 4
8 8 7 6 6 7 9 12 13 14 15 17 18 16 15 15 16 16 16 16 16 17 17 15 12 10 10 13 17 20 23 22 21 19 18 18 18 20 20 20 20 21 21 21 21 22 22 22 21 20 19 19 19 19 19 19 19 19 19 18 18 18 17 16 16 15 15 14 13 12 12 11 10 9 8 8 8 8 8 8 8 7 7 6 5 4
6 6 6 6 6 6 7 10 12 13 16 18 19 18 16 15 15 16 16 17 17 16 15 14 9 5 5 9 13 17 21 22 22 21 19 18 17 18 19 19 20 20 20 20 20 20 20 20 19 18 18 18 18 18 18 18 18 18 19 19 18 18 17 17 16 16 16 15 14 14 13 12 11 10 9 9 9 9 9 9 8 8 7 6 5 4
4 4 5 5 5 5 7 8 10 12 15 16 18 19 19 18 17 17 17 17 17 16 15 14 11 7 5 6 8 13 18 21 21 21 19 17 16 16 17 18 19 19 19 19 19 19 19 18 17 17 17 16 16 16 17 17 18 18 18 18 18 18 18 17 17 17 16 16 15 14 14 13 12 11 11 10 10 10 10 9 8 8 7 5 5 4
7 6 6 5 5 6 7 7 8 10 12 14 16 18 18 19 19 19 18 17 16 15 14 13 13 13 10 9 10 14 17 19 21 20 18 15 14 15 16 16 17 18 18 17 17 17 17 16 16 16 16 15 15 16 16 17 17 18 18 18 18 18 18 18 18 17 17 16 16 15 14 13 13 12 11 11 10 10 9 9 8 7 6 5 4 4
9 9 7 6 6 6 6 6 6 7 10 13 17 18 18 19 19 19 18 16 15 14 14 13 13 13 13 15 16 17 17 19 21 20 18 15 14 15 16 16 16 16 17 16 16 16 15 14 14 14 14 15 15 16 16 17 18 18 19 19 19 19 19 18 18 18 17 16 16 15 15 14 13 12 12 11 10 10 9 8 7 6 5 4 4 4
12 11 9 7 6 6 5 5 4 6 9 12 15 17 18 19 19 18 18 18 17 15 14 13 11 12 16 18 19 20 20 20 21 21 17 13 13 14 17 17 17 17 18 18 18 17 16 15 14 14 14 15 16 16 17 18 19 19 19 20 19 19 19 19 18 18 17 17 16 15 14 14 13 12 11 11 10 9 8 8 7 6 5 4 4 5
15 13 12 11 9 7 6 5 5 5 8 11 13 15 17 18 18 18 19 19 18 16 14 12 12 15 18 20 21 22 22 22 23 22 17 11 10 12 17 18 19 19 20 21 20 19 17 16 15 14 15 16 17 17 18 19 20 20 20 20 20 19 19 19 18 18 17 16 16 15 14 13 12 11 11 10 9 8 8 7 6 5 5 5 5 6
19 17 16 15 13 10 9 7 6 6 8 10 12 14 16 18 19 19 20 20 19 18 17 17 17 18 19 19 21 22 23 22 24 23 18 11 9 12 18 19 21 21 20 20 20 20 19 19 18 16 16 16 17 18 19 20 21 21 20 20 20 19 19 19 18 18 17 16 15 14 13 12 11 10 10 9 8 7 6 6 6 5 5 5 6 7
21 20 19 17 16 14 12 10 8 7 8 10 11 13 16 18 20 21 22 22 23 22 21 21 19 18 17 18 19 20 21 22 23 21 16 11 11 15 19 20 20 20 19 19 19 21 22 22 21 20 18 17 18 19 19 20 20 20 20 20 19 19 19 18 18 17 16 15 14 13 12 11 10 9 8 7 6 6 5 5 5 6 6 6 7 8
22 21 20 20 19 17 16 14 12 9 8 9 10 12 13 16 18 20 22 23 24 23 23 21 17 15 14 16 17 17 19 21 22 21 17 13 14 18 19 19 18 18 18 20 21 24 26 25 24 22 21 19 18 18 19 19 19 19 19 19 19 19 18 17 17 16 15 14 12 11 10 9 8 7 7 6 5 4 4 5 6 6 7 7 8 9
23 22 21 21 20 20 19 18 16 13 11 10 11 12 13 14 16 18 20 21 22 23 21 17 12 10 11 13 13 13 16 18 19 20 19 16 16 18 18 18 18 18 19 21 23 25 26 25 24 23 22 20 18 17 17 18 18 18 19 18 18 18 17 16 15 14 13 12 11 10 9 8 7 6 5 4 4 3 4 5 6 7 8 9 10 11
21 20 19 19 19 19 20 20 18 16 14 12 12 14 16 17 18 19 18 18 20 21 18 13 9 8 9 9 9 10 13 14 14 16 19 19 19 18 18 20 22 22 21 22 22 24 24 23 21 21 22 22 19 17 16 15 15 16 16 16 16 16 16 15 14 13 12 11 10 9 7 6 5 5 4 3 3 3 4 6 7 8 9 10 11 12
19 19 18 18 18 18 18 19 19 19 17 15 14 14 16 18 18 15 12 14 16 17 16 13 10 7 6 6 8 10 12 11 12 14 19 20 19 18 20 22 25 26 24 22 21 21 20 19 19 20 21 21 20 19 17 16 15 14 14 14 14 14 14 13 12 11 10 9 8 7 6 5 4 4 3 3 3 4 5 7 8 9 10 11 12 13
20 20 20 19 19 18 18 19 20 20 19 17 16 15 16 17 16 13 10 12 13 13 13 14 13 11 9 9 11 12 11 10 11 14 19 19 18 18 21 23 25 27 25 21 19 17 17 16 17 18 19 20 20 19 18 17 15 15 14 13 13 12 12 11 10 9 8 7 6 5 5 4 4 4 4 3 4 4 6 8 9 10 11 12 13 14
22 22 22 22 21 21 20 21 21 21 20 19 19 18 17 17 16 15 13 13 12 12 12 13 14 15 14 12 10 7 6 7 10 14 18 16 16 18 22 22 23 25 25 20 13 9 10 12 14 16 17 17 17 17 17 16 15 14 13 12 11 10 9 8 8 7 6 5 4 4 3 3 3 4 4 4 4 5 6 8 9 11 12 12 13 14
22 23 23 23 23 23 23 23 22 22 22 21 21 20 20 19 18 17 15 15 14 13 13 12 13 14 14 10 5 2 2 4 8 13 15 14 15 19 22 21 22 24 24 19 11 4 4 6 9 12 14 14 14 14 14 13 12 11 10 9 9 8 7 6 6 5 4 3 3 3 3 3 4 4 4 5 5 6 6 8 9 10 11 12 12 12
21 22 22 23 24 24 24 24 24 24 24 24 23 22 21 20 19 18 17 17 16 16 15 13 12 11 10 7 5 3 3 5 8 11 14 14 17 21 23 22 21 22 21 19 14 8 5 4 7 10 11 11 11 11 10 10 9 8 8 7 7 6 6 5 4 4 3 3 3 3 4 4 5 5 5 6 6 6 7 8 8 9 10 10 10 10
20 21 21 23 24 25 25 25 25 25 25 25 25 23 22 21 20 19 18 18 17 17 16 15 13 11 10 10 9 8 7 8 9 11 14 15 17 19 21 21 20 19 18 16 15 12 9 8 9 10 11 10 10 9 9 8 8 7 6 6 5 5 5 5 4 4 4 4 4 4 5 5 5 6 6 6 7 7 7 8 8 8 8 8 9 9
20 21 21 22 23 23 24 25 25 25 25 25 25 24 23 22 21 20 19 18 18 17 17 17 15 14 12 12 12 11 11 10 10 11 14 17 17 18 20 19 18 17 15 13 12 12 12 12 13 12 11 11 10 9 9 8 7 6 5 4 4 4 3 3 3 3 4 4 4 5 5 5 6 6 6 7 7 7 8 8 8 7 7 6 7 8
20 20 21 21 21 21 22 23 23 24 24 24 24 24 23 23 22 22 21 20 19 18 17 17 17 16 15 13 11 11 11 11 11 12 14 16 18 18 18 16 15 15 13 11 11 10 10 12 13 13 11 10 10 9 9 9 8 7 5 4 4 3 3 3 3 3 3 4 4 5 5 5 5 6 6 6 7 8 8 8 8 7 7 6 6 7
19 19 19 19 19 19 19 20 21 22 22 23 23 23 23 22 22 22 22 21 20 20 20 19 19 19 19 18 16 14 13 12 12 12 13 16 18 18 15 13 13 13 11 11 11 11 10 11 12 13 11 9 8 7 8 9 8 7 6 5 4 4 4 3 3 3 3 4 4 4 5 5 5 5 6 6 7 8 8 8 8 8 7 7 7 7
17 17 17 18 17 17 17 18 18 19 19 20 21 22 22 22 22 22 22 22 21 22 22 22 22 21 21 20 19 17 15 14 12 12 12 14 16 17 14 12 11 11 11 12 12 12 12 11 10 11 10 8 6 6 7 8 7 6 6 6 5 5 5 5 4 4 4 4 3 4 4 5 5 5 6 7 7 8 8 8 9 9 9 8 8 8
15 15 16 16 16 16 16 16 16 16 16 17 17 19 20 21 21 22 22 21 21 22 22 22 22 22 21 20 19 17 16 14 13 12 12 12 13 14 14 13 11 10 11 13 14 14 13 11 9 8 6 6 6 7 8 8 8 7 7 6 6 6 6 6 5 5 5 4 4 4 5 5 5 6 6 7 7 7 8 8 8 9 9 9 9 9
13 13 14 15 15 15 15 15 14 14 15 14 15 15 17 19 20 21 22 21 21 21 21 22 22 22 21 20 19 17 16 15 14 13 12 12 11 12 13 12 11 10 10 11 13 14 13 10 8 7 6 6 7 8 9 8 8 8 8 7 6 6 6 6 6 5 5 4 4 4 5 5 6 6 7 7 8 7 7 8 8 8 9 9 9 9
12 12 13 13 13 14 14 13 13 13 13 13 13 14 15 16 17 18 20 21 21 21 22 22 22 22 21 21 20 18 17 16 15 13 13 12 11 11 11 11 11 10 9 9 10 11 10 9 8 8 8 7 7 7 7 7 7 7 7 6 6 5 5 5 5 5 5 5 4 4 5 6 6 7 7 8 8 7 7 8 8 9 9 9 9 10
12 12 12 12 12 12 12 11 11 11 11 12 13 14 15 15 14 15 16 17 19 19 19 20 21 22 21 21 20 20 19 18 16 15 14 13 11 10 10 10 10 9 8 8 8 8 8 8 8 8 8 8 8 7 7 6 6 5 6 5 5 5 5 4 4 4 4 4 5 5 5 6 7 7 7 7 8 8 8 8 8 9 9 10 10 10
11 11 11 11 11 11 11 10 10 10 11 12 13 14 14 14 14 14 14 15 16 17 17 18 19 20 20 21 20 20 19 19 18 17 15 13 12 11 11 10 9 8 8 8 9 9 8 8 8 8 7 7 7 6 6 5 5 5 5 4 4 3 3 3 3 3 3 4 5 5 5 6 6 7 7 7 8 8 9 9 9 9 9 10 10 11
11 11 11 11 11 11 11 11 11 12 12 13 14 13 13 13 13 13 13 14 14 14 15 15 16 17 17 18 18 19 18 18 17 16 15 14 13 11 11 10 9 8 8 8 9 9 8 8 8 8 8 7 6 6 5 5 4 4 3 3 2 1 1 0 1 3 3 4 4 5 5 6 6 7 8 8 9 9 9 9 9 10 10 10 11 12
11 11 11 12 12 13 13 13 13 14 14 15 15 14 13 12 12 12 12 12 12 12 13 13 14 15 15 15 15 16 16 16 15 15 15 13 12 11 10 10 9 8 7 8 9 9 8 8 7 7 7 6 6 5 5 4 3 2 2 1 1 0 0 0 1 1 2 3 3 4 5 6 7 8 9 9 10 10 10 11 11 11 11 12 12 12
11 11 11 12 12 13 14 14 14 14 14 15 15 14 13 12 12 12 12 11 11 11 11 11 12 12 11 11 12 12 13 14 14 13 13 12 11 9 9 8 8 7 7 7 8 8 8 8 7 6 5 4 4 4 3 3 2 1 1 1 1 1 1 1 1 1 1 1 2 4 5 6 7 8 9 9 10 11 12 12 12 13 13 13 13 13
11 11 11 12 13 13 13 14 14 14 15 15 15 14 14 13 12 12 12 12 11 11 10 11 11 10 9 9 9 10 11 11 12 12 12 11 9 8 8 7 7 6 6 6 6 6 6 6 6 5 4 3 3 2 2 2 2 1 1 1 2 2 2 2 2 2 1 1 3 4 6 7 8 8 9 9 11 12 13 13 13 14 14 13 13 13
10 10 10 11 11 12 12 13 14 14 15 15 15 14 14 13 13 13 13 13 12 12 12 12 13 12 10 9 8 8 8 9 10 11 11 10 9 9 8 7 5 5 4 4 4 4 4 3 3 3 3 3 3 3 2 2 2 2 2 2 3 4 4 3 3 2 1 2 4 6 7 8 8 9 9 10 12 12 13 13 14 14 14 13 13 13
9 9 9 9 10 10 11 12 13 13 14 14 14 14 14 14 13 13 13 13 13 13 12 13 13 12 11 10 9 9 9 9 9 10 11 10 10 9 8 7 6 5 4 3 3 3 3 3 3 2 2 3 3 3 3 4 4 4 4 5 5 4 4 3 2 2 2 4 5 7 8 9 9 10 11 12 12 12 12 13 14 15 15 14 13 12
9 9 8 9 9 10 10 10 11 12 13 13 13 13 13 13 13 13 13 13 13 13 12 12 11 10 9 9 9 9 9 10 10 10 10 10 10 10 9 8 7 6 5 4 3 3 4 5 5 5 5 5 4 3 4 4 5 6 6 6 5 4 3 2 2 3 4 5 7 8 9 10 10 11 12 12 11 12 12 12 13 13 14 14 13 12
8 8 8 8 9 9 9 9 10 10 11 12 12 12 12 12 13 13 13 13 13 13 13 11 10 9 8 8 8 9 9 9 9 9 10 10 10 10 10 10 9 7 6 5 4 5 6 7 8 8 8 8 6 5 4 5 6 6 6 6 5 4 3 2 3 4 5 7 8 9 10 11 11 12 12 11 11 11 12 11 11 11 12 13 14 13
8 8 9 8 8 8 8 8 9 9 9 10 10 11 11 12 12 12 12 13 13 13 12 11 10 9 8 8 8 8 9 9 9 9 9 9 9 9 10 10 9 8 7 5 5 5 5 6 6 7 8 8 7 6 5 5 5 5 5 4 4 3 3 3 4 6 7 8 9 10 11 11 11 11 10 9 9 10 10 10 9 9 10 12 13 14
Wind_Direction
201 199 195 191 188 187 189 191 189 186 183 182 178 176 178 181 181 179 175 172 172 173 171 169 168 168 170 172 173 173 173 172 172 174 175 176 177 177 178 180 182 184 185 185 186 186 186 187 187 189 190 189 186 183 180 177 175 174 173 170 168 167 165 162 159 155 151 148 144 141 138 136 135 133 131 127 122 115 109 103 100 99 97 96 95 94
198 196 194 192 189 187 188 191 190 186 183 181 179 178 180 183 182 178 175 175 176 175 171 168 167 167 169 172 175 176 175 173 172 171 172 172 173 174 175 176 178 180 181 182 182 181 180 179 178 178 178 178 176 174 172 170 169 168 167 166 165 164 163 162 159 156 152 148 145 141 138 136 134 131 128 122 115 109 103 100 97 95 92 89 87 85
188 189 191 191 190 188 189 191 190 187 184 181 179 178 180 181 180 178 176 176 176 174 171 168 167 168 169 172 175 177 177 174 173 172 172 172 171 171 172 173 174 175 176 176 176 175 174 173 172 172 172 172 171 170 168 167 166 165 164 164 163 163 163 162 160 158 154 150 146 141 138 135 132 129 124 117 111 106 102 99 95 92 88 85 82 79
179 180 185 185 187 191 192 191 189 187 184 182 180 179 180 180 179 177 176 175 174 172 171 170 170 170 171 172 176 178 178 176 174 173 173 172 172 171 171 172 172 173 173 172 171 170 170 170 169 169 169 169 169 168 167 166 165 164 164 163 163 163 163 162 160 157 154 150 146 142 138 134 130 126 121 116 111 107 103 99 94 90 85 81 78 74
175 176 179 177 181 188 193 192 189 186 183 181 179 179 180 180 178 177 175 175 174 172 171 171 172 173 173 173 175 178 179 178 176 175 175 174 172 171 171 172 172 172 172 170 169 168 168 168 168 168 168 168 168 167 166 166 165 165 164 163 163 163 162 161 159 157 154 151 147 144 140 135 131 126 121 117 114 110 106 100 95 89 84 79 74 69
172 173 173 171 175 183 189 191 189 184 180 178 177 177 178 178 176 175 174 174 174 174 173 172 173 174 174 174 175 177 178 178 178 177 176 175 173 172 172 172 172 172 171 169 168 167 167 167 167 167 167 167 167 167 166 166 165 165 165 164 164 163 162 161 160 158 156 153 150 147 143 138 133 129 124 121 117 114 110 103 95 88 81 75 69 63
168 170 169 169 172 178 184 187 186 181 175 172 172 174 174 174 172 172 172 173 174 175 174 174 174 173 173 173 174 176 177 178 178 178 177 176 174 173 172 172 172 171 170 168 167 166 166 167 167 167 168 168 168 167 167 166 166 165 165 165 165 164 164 163 162 161 159 157 154 151 146 142 138 133 128 125 122 118 113 105 96 86 78 72 66 59
157 161 161 164 167 172 177 179 179 177 173 168 166 167 169 168 167 167 168 170 172 173 173 174 174 173 171 170 171 173 175 176 176 176 176 175 174 173 172 172 171 170 169 168 167 166 167 167 168 169 169 169 169 169 168 167 166 166 166 166 166 166 165 165 164 163 162 160 157 154 151 146 141 136 132 128 124 120 114 104 94 83 74 67 60 56
150 151 153 157 159 162 169 172 173 174 174 170 167 165 166 164 163 162 163 166 169 172 173 172 171 170 169 167 166 167 172 173 173 172 173 173 173 173 173 172 171 170 169 168 167 167 168 169 170 170 171 171 170 169 168 167 167 167 167 167 167 167 167 167 166 165 164 163 161 158 154 149 144 139 134 129 124 118 110 100 89 79 69 63 57 53
150 153 152 152 155 158 161 163 169 175 177 174 171 169 168 165 161 159 161 166 171 174 173 169 166 164 165 165 164 163 166 170 172 172 172 173 173 173 172 171 170 169 169 168 168 169 169 170 171 172 172 172 171 170 168 168 167 167 168 168 168 169 169 169 168 168 167 166 164 161 156 151 145 140 135 130 124 116 108 97 87 75 67 60 57 58
148 155 157 154 155 157 156 158 165 172 176 174 172 172 172 169 166 163 163 166 171 172 170 165 162 161 162 163 164 163 163 165 169 171 172 173 173 172 171 170 170 169 169 169 169 170 171 172 172 172 172 172 171 170 169 168 168 169 169 170 170 171 171 171 170 170 169 168 166 162 158 153 148 143 138 134 128 120 111 102 91 80 73 69 70 72
142 152 161 163 162 158 152 152 158 164 167 166 168 172 176 175 172 168 167 167 167 166 163 161 160 160 162 163 164 164 163 163 163 164 165 167 169 169 169 168 168 168 167 168 169 171 172 172 172 172 172 172 171 171 169 169 170 171 171 172 173 173 173 172 171 170 170 169 167 165 162 158 154 150 147 143 138 132 126 120 114 107 103 101 101 102
141 146 153 161 167 165 157 150 150 154 158 160 165 171 176 177 175 172 169 166 163 161 160 157 157 160 163 165 165 165 165 162 160 160 161 163 164 165 165 165 165 164 163 164 166 169 171 172 172 172 172 172 172 172 171 170 171 172 173 174 174 174 173 172 171 171 171 170 170 169 168 165 162 160 157 154 150 146 144 145 144 143 141 140 139 138
153 147 144 150 161 169 170 165 161 161 165 167 168 169 171 174 174 170 164 158 156 156 156 154 154 158 162 164 166 167 167 164 161 160 161 163 164 165 165 164 164 164 164 164 167 169 170 171 171 171 172 173 173 172 172 172 173 174 175 175 175 174 174 173 172 173 173 174 174 174 173 171 170 168 165 160 157 155 156 157 158 159 159 158 159 163
168 166 153 146 151 161 169 171 172 173 176 177 174 170 168 169 170 168 161 151 148 149 148 148 148 151 156 162 166 167 168 165 162 159 158 161 165 168 168 167 167 168 168 170 172 173 173 172 171 170 172 173 173 172 173 174 175 176 177 176 176 175 175 174 175 176 177 178 178 177 176 175 173 171 167 163 160 160 162 163 165 166 167 168 172 178
169 175 171 155 142 144 156 163 168 172 178 183 184 179 170 165 164 164 158 153 149 148 146 143 140 143 156 165 167 165 165 165 163 159 157 158 163 168 169 168 168 170 172 174 176 176 176 176 174 172 172 173 173 172 173 175 177 177 178 177 177 177 176 177 177 178 178 179 178 177 176 175 174 171 168 165 164 164 165 167 168 170 172 176 181 189
156 168 166 154 136 126 136 148 156 163 172 180 186 187 183 174 167 162 158 158 158 156 155 152 148 146 159 169 169 166 164 163 163 162 160 158 160 165 169 169 168 170 172 175 177 178 178 177 175 174 175 176 175 174 175 176 177 178 178 178 178 178 178 178 178 178 178 178 177 177 176 176 174 172 170 167 167 167 169 170 172 174 177 181 187 197
108 122 131 130 125 123 127 133 143 155 165 171 179 185 189 187 180 172 166 164 165 166 166 165 165 165 163 166 172 173 170 163 162 162 160 157 158 163 168 169 169 169 170 172 175 177 178 177 177 178 180 180 179 178 178 178 179 179 179 179 179 179 179 179 179 178 178 177 176 176 176 176 175 174 172 171 171 171 172 174 176 178 181 187 196 207
77 76 84 101 118 124 124 126 135 147 157 164 170 175 179 185 185 180 176 173 173 172 170 169 171 172 169 170 172 172 171 163 158 156 153 152 155 161 164 165 165 164 163 165 169 172 175 176 178 181 184 183 182 181 180 180 179 178 178 177 178 178 178 178 177 176 176 175 175 176 175 175 175 174 174 173 173 174 175 176 178 181 186 194 205 221
71 64 64 82 105 112 108 113 131 150 160 167 170 171 170 175 178 179 179 179 179 177 173 169 165 165 167 171 172 172 169 162 153 146 142 140 146 155 159 158 156 154 152 153 157 161 161 161 164 170 177 180 181 180 178 176 175 174 175 175 176 176 176 175 174 173 173 172 173 174 174 174 174 174 174 174 174 175 176 177 179 184 191 203 219 240
68 59 59 73 88 91 87 95 122 152 167 170 169 168 168 170 173 176 180 181 181 180 177 169 158 155 164 166 167 169 170 164 153 144 136 130 133 143 151 152 150 145 140 139 143 147 147 149 155 160 162 168 170 170 170 170 171 171 172 172 172 172 171 170 169 169 169 170 171 172 172 173 173 173 174 174 175 175 177 179 184 192 204 220 240 260
69 61 59 65 72 75 75 85 108 140 159 164 163 162 163 166 169 173 176 177 177 174 168 157 152 155 160 160 162 166 169 166 159 150 139 124 117 128 141 144 143 138 131 131 136 142 143 144 146 149 152 156 158 160 163 165 167 168 169 168 167 166 165 166 166 167 167 169 169 170 171 172 173 173 174 175 176 178 182 187 196 208 222 239 258 275
69 65 60 59 60 63 67 77 97 126 148 158 161 162 164 167 169 170 170 170 168 163 156 151 149 150 152 154 157 161 164 165 163 157 142 128 120 128 135 139 137 132 127 129 135 139 139 137 134 134 140 146 150 153 155 159 162 163 163 162 161 161 162 163 165 166 166 167 168 169 170 172 173 175 176 178 180 184 191 201 213 227 241 257 273 287
67 64 61 58 56 56 58 62 75 102 131 148 158 165 169 171 171 170 168 167 164 158 151 144 138 133 133 139 146 153 159 163 163 158 146 130 127 132 134 135 132 129 130 134 136 136 136 133 130 129 132 139 145 148 150 153 156 157 157 157 158 160 161 162 163 164 165 166 167 168 170 172 174 176 179 182 186 194 204 218 232 245 258 273 287 298
64 63 61 59 58 57 57 56 61 76 101 127 143 155 164 168 168 167 165 163 158 151 143 133 123 116 119 126 133 142 153 161 163 159 147 133 130 134 138 139 134 129 129 133 135 134 132 131 129 129 129 131 136 142 145 148 149 151 152 154 156 158 159 160 161 162 163 164 165 167 169 171 174 177 180 185 193 205 221 239 252 263 275 287 297 303
63 64 64 63 62 60 58 56 58 65 80 104 124 138 148 153 156 154 151 148 146 142 136 127 120 118 120 122 124 131 144 154 160 161 154 144 138 140 142 142 135 126 122 125 128 128 126 126 126 128 128 127 128 133 140 144 145 146 148 150 152 154 156 157 158 159 160 161 163 165 167 170 174 179 184 191 204 223 244 259 270 279 288 297 303 306
63 64 65 65 64 62 59 57 57 61 70 87 109 127 136 141 141 137 132 135 142 143 139 133 127 123 119 115 115 124 137 145 152 156 157 151 145 143 144 143 137 129 121 119 121 122 121 120 121 123 125 125 125 127 133 137 138 138 141 143 145 148 151 153 154 156 157 159 161 164 168 173 179 187 194 207 225 249 266 276 283 291 298 303 306 308
63 62 62 63 64 63 62 60 59 59 64 76 95 115 128 134 129 119 117 134 146 149 146 143 139 135 127 120 116 122 131 137 142 146 150 147 145 145 148 146 142 137 128 122 121 122 121 119 118 119 122 125 127 129 130 132 133 134 136 140 143 145 148 150 151 152 154 157 160 165 172 181 191 203 216 232 251 271 281 287 293 298 303 306 308 309
64 64 63 63 64 64 65 63 61 61 63 71 82 97 110 117 111 103 110 131 143 146 146 145 144 142 135 126 119 117 120 126 135 143 146 143 142 146 150 149 147 144 138 131 124 120 118 118 119 121 123 128 130 131 132 134 135 136 137 139 141 143 145 147 149 151 154 158 163 171 182 196 211 226 240 255 269 283 290 295 299 302 305 307 308 308
61 61 61 61 63 64 65 65 64 64 66 70 75 82 88 93 93 93 102 115 123 127 131 136 140 141 136 130 120 106 101 114 133 143 145 143 144 149 152 153 153 151 147 140 131 117 111 115 119 123 127 131 133 133 134 136 138 139 138 139 140 140 142 144 148 153 158 163 172 185 202 220 235 248 260 270 279 288 294 298 301 303 304 306 306 308
55 55 55 56 59 62 64 64 64 66 67 69 71 72 74 77 80 85 94 100 105 110 116 121 130 138 141 139 133 109 91 113 134 144 149 146 148 153 156 159 160 157 153 151 148 137 125 122 127 132 136 139 140 141 141 143 143 144 146 146 145 143 143 147 152 159 169 180 196 215 233 246 256 265 272 279 285 289 293 297 300 302 303 305 307 309
53 53 52 53 56 58 60 62 63 63 64 65 66 67 68 70 74 80 87 94 98 102 104 105 110 122 134 129 120 112 111 121 136 147 152 147 149 154 158 161 163 163 160 158 155 149 139 146 146 145 146 147 151 154 157 160 160 162 164 166 163 160 162 168 175 184 197 216 233 246 255 262 268 273 278 283 287 289 291 293 297 300 302 305 308 311
54 54 53 54 55 56 57 58 59 60 60 61 61 63 65 68 71 75 81 88 94 97 97 95 93 95 98 96 94 94 98 110 129 144 150 149 149 153 158 160 162 163 163 160 155 146 138 141 145 144 142 144 149 156 164 171 175 178 180 182 181 182 188 196 205 213 224 236 247 255 261 267 271 276 280 284 286 288 288 289 291 294 299 306 310 312
54 53 53 53 53 54 55 56 57 58 58 59 59 61 63 66 68 71 74 80 86 92 94 92 89 87 87 88 89 87 87 98 117 137 148 152 153 154 156 157 159 160 159 155 147 138 132 135 140 141 137 136 137 140 145 153 160 166 170 173 173 177 189 202 212 222 234 242 248 254 259 265 271 276 280 283 285 286 286 286 286 287 292 299 306 309
51 51 51 50 50 51 51 53 54 56 57 58 59 61 63 65 67 70 72 75 79 84 89 92 94 94 93 91 88 81 76 88 108 131 147 153 154 153 152 154 157 158 155 148 139 131 128 133 140 143 137 133 130 129 131 135 138 140 143 147 151 156 164 177 192 208 229 242 248 252 256 262 267 272 277 281 283 284 285 284 283 282 282 284 291 297
48 47 47 47 48 48 49 50 52 54 56 58 60 63 65 67 69 71 73 76 79 82 86 90 94 97 98 96 90 82 77 85 101 122 140 151 153 152 147 147 150 150 144 135 130 129 130 133 139 142 139 136 131 129 131 134 134 132 133 139 146 154 162 174 189 203 221 235 244 251 255 259 264 270 276 280 282 284 285 285 283 280 278 276 278 282
46 44 43 44 45 46 47 48 50 52 54 57 60 64 68 71 73 75 77 79 82 85 87 89 91 93 93 93 90 86 83 87 96 109 126 143 151 151 143 138 140 141 135 126 125 127 129 130 135 139 139 140 138 136 137 138 136 132 132 139 147 155 164 178 194 207 218 230 245 255 260 262 266 271 276 280 283 285 286 285 283 280 279 278 277 277
45 42 40 41 42 43 44 46 48 51 53 56 60 65 69 73 76 79 81 83 85 86 88 88 88 88 88 88 87 86 86 86 91 99 111 127 140 144 138 132 130 132 132 132 132 132 130 132 136 138 139 137 134 134 137 139 136 134 136 143 151 158 166 177 192 204 215 229 247 260 267 269 272 276 279 281 284 285 285 283 280 279 279 279 279 277
43 41 38 38 39 41 42 44 48 53 58 60 64 68 72 76 79 82 83 84 85 86 87 87 87 87 86 85 85 84 84 83 85 90 98 106 118 128 130 126 122 122 125 132 136 138 137 138 141 141 137 131 130 134 141 143 142 140 142 149 159 168 175 181 192 205 218 232 252 271 277 278 278 280 284 285 287 288 287 285 283 281 281 280 278 275
43 41 39 38 39 41 43 46 51 58 63 68 73 76 77 77 78 81 84 86 87 88 89 89 88 87 85 84 82 81 80 80 81 84 88 93 100 110 118 118 117 117 120 125 132 138 141 138 137 139 140 137 136 138 140 143 145 148 151 153 156 164 177 187 200 215 229 242 260 278 287 286 285 285 288 290 291 292 291 292 292 292 292 292 292 290
44 42 40 41 43 45 48 53 57 62 68 73 78 80 79 78 77 79 83 86 88 89 89 90 89 88 86 83 81 80 79 78 78 79 82 86 93 100 105 107 108 110 115 117 121 126 131 131 129 129 132 136 139 140 140 140 144 150 157 158 160 169 184 201 219 234 248 258 266 274 282 287 288 288 288 290 292 292 292 294 297 301 303 302 301 301
46 45 44 45 47 50 55 59 63 66 70 73 75 77 78 78 79 81 84 85 86 88 90 90 88 85 82 80 79 79 78 78 77 77 79 83 89 95 99 101 102 105 111 115 115 116 120 125 127 127 129 135 137 138 139 142 147 152 156 162 171 183 200 220 236 246 262 276 279 278 280 284 286 287 288 289 290 291 291 293 295 299 304 305 305 304
50 50 51 52 55 59 63 67 69 70 71 71 71 72 75 78 81 82 83 83 83 85 87 87 86 83 80 76 75 75 75 76 76 76 76 78 83 89 95 98 100 105 112 118 118 117 121 126 128 131 136 141 141 138 138 137 143 155 171 178 180 170 154 181 269 267 272 280 283 283 282 284 286 287 287 288 289 289 290 291 292 294 297 299 302 303
58 58 57 57 59 62 65 66 67 68 68 66 66 68 73 80 85 86 84 83 83 84 84 85 85 82 77 72 71 71 72 73 74 74 73 74 77 83 90 95 99 104 110 118 118 118 121 123 126 132 139 143 141 137 136 136 138 148 184 213 222 202 127 118 277 277 279 279 283 286 288 288 288 290 292 292 292 292 292 292 293 294 296 297 299 300
66 62 60 59 59 59 59 60 62 65 66 66 66 67 70 78 84 86 85 85 86 85 85 86 83 77 69 67 67 67 68 69 70 70 71 71 72 75 80 86 92 100 107 114 119 122 121 119 122 130 139 141 136 131 128 132 136 137 164 243 239 204 190 192 200 201 214 279 303 307 302 296 296 300 304 305 304 302 300 299 299 301 301 302 302 302
64 63 61 61 62 61 60 61 63 65 66 67 67 68 71 75 79 82 85 86 85 84 84 86 82 75 68 64 63 62 61 61 61 62 63 63 63 64 66 70 77 85 97 108 117 124 126 125 125 128 129 126 124 125 135 136 131 120 111 126 130 130 134 142 149 150 147 338 332 325 316 306 307 313 317 316 312 309 306 304 304 306 307 308 307 306
62 61 61 62 62 62 63 64 65 65 66 66 68 70 72 73 75 78 82 84 85 84 83 83 81 76 70 65 61 59 57 54 53 53 54 53 52 51 52 52 53 58 69 84 98 110 117 123 127 128 125 120 117 118 119 124 123 117 113 125 128 125 121 118 115 108 72 351 340 334 326 322 324 327 324 320 316 313 311 308 307 308 309 310 309 307
60 61 61 62 62 63 62 63 64 64 64 65 67 70 72 74 75 77 79 82 83 83 81 79 77 74 71 66 63 60 60 58 54 50 49 47 45 43 42 40 36 31 30 34 45 62 73 81 87 98 115 122 119 113 109 105 110 117 122 125 124 121 116 107 87 42 360 344 338 335 334 335 335 333 327 322 318 314 312 311 310 309 310 310 309 307
58 60 60 61 62 62 61 61 62 62 63 65 67 69 72 75 77 79 80 81 82 81 79 77 75 73 69 66 63 62 62 61 57 52 48 44 40 37 36 36 35 35 33 30 38 54 69 76 79 84 93 102 101 96 97 99 104 110 114 115 113 107 99 79 32 354 341 335 332 331 331 332 330 328 326 322 317 313 311 309 308 307 309 309 309 309
54 57 59 58 57 57 57 59 60 61 63 66 68 70 72 75 77 79 80 81 81 80 80 79 76 73 70 66 64 63 62 60 57 51 46 42 38 34 32 34 38 44 54 70 84 90 91 89 86 85 85 89 89 86 88 97 103 105 102 98 95 87 66 33 355 335 329 327 325 324 325 326 324 323 322 319 314 309 307 305 303 301 303 309 311 312
50 52 54 53 51 51 53 56 58 61 63 66 71 74 76 77 77 78 79 80 79 79 79 78 76 73 72 69 67 65 63 62 57 51 45 43 39 35 33 34 36 40 47 65 85 96 101 99 93 86 81 79 75 76 86 94 100 99 89 79 69 56 27 356 335 326 323 322 320 320 321 322 323 323 321 316 310 305 302 300 298 296 298 307 312 316